Weather History for Alturas, CA

Change the Weather History Date:

Tuesday, November 27, 2012

  Actual Average Record
Temperature  
Mean Temperature 40 °F 32 °F  
Max Temperature 60 °F 44 °F 65 °F (1963)
Min Temperature 19 °F 21 °F -5 °F (1931)
Degree Days  
Heating Degree Days 25 33  
Month to date heating degree days 693 768  
Since 1 July heating degree days 1350 1711  
Cooling Degree Days 0 0  
Month to date cooling degree days 0 0  
Year to date cooling degree days 224 156  
Moisture  
Dew Point 24 °F    
Average Humidity 60    
Maximum Humidity 96    
Minimum Humidity 24    
Precipitation  
Precipitation 0.00 in 0.06 in 0.52 in (1962)
Month to date precipitation 0.86 1.62  
Year to date precipitation 7.11 12.29  
Sea Level Pressure  
Sea Level Pressure 30.12 in    
Wind  
Wind Speed 3 mph (South)    
Max Wind Speed 18 mph    
Max Gust Speed 24 mph    
Visibility 9 miles    
Events      
T = Trace of Precipitation, MM = Missing Value Source: NWS Daily Summary

Daily Weather History Graph

Daily Weather History Graph

Search for Another Location

Airport:

Trip Planner

Search our weather history database for the weather conditions in past years. The results will help you decide how hot, cold, wet, or windy it might be!

Date:

Astronomy

Nov. 27, 2012 Rise Set
Actual Time 7:05 AM PST 4:34 PM PST
Civil Twilight 6:34 AM PST 5:05 PM PST
Nautical Twilight 6:00 AM PST 5:39 PM PST
Astronomical Twilight 5:27 AM PST 6:12 PM PST
Moon 4:09 PM PST (11/27) 6:14 AM PST (11/27)
Length of Visible Light 10h 30m
Length of Day
9h 28m
Waxing Gibbous, 99% of the Moon is Illuminated
Nov 27
Waxing Gibbous
Nov 28
Full
Dec 6
Last Quarter
Dec 13
New
Dec 19
First Quarter

Hourly Weather History & Observations

Time (PST) Temp. Dew Point Humidity Pressure Visibility Wind Dir Wind Speed Gust Speed Precip Events Conditions
12:09 AM 24.8 °F 21.2 °F 86% 30.13 in 3.0 mi Calm Calm - N/A   Clear
12:55 AM 23.0 °F 21.0 °F 92% 30.13 in 9.0 mi Calm Calm - N/A   Clear
1:55 AM 24.1 °F 21.9 °F 91% 30.13 in 10.0 mi Calm Calm - N/A   Clear
2:55 AM 23.0 °F 21.0 °F 92% 30.13 in 9.0 mi Calm Calm - N/A   Clear
4:55 AM 19.9 °F 18.0 °F 92% 30.17 in 10.0 mi Calm Calm - N/A   Clear
5:55 AM 19.9 °F 18.0 °F 92% 30.19 in 10.0 mi Calm Calm - N/A   Clear
6:55 AM 21.0 °F 18.0 °F 88% 30.20 in 10.0 mi Calm Calm - N/A   Clear
7:55 AM 21.9 °F 19.9 °F 92% 30.22 in 10.0 mi Calm Calm - N/A   Clear
8:55 AM 28.0 °F 25.0 °F 88% 30.22 in 10.0 mi Calm Calm - N/A   Clear
9:55 AM 37.9 °F 28.9 °F 70% 30.20 in 4.0 mi Calm Calm - N/A   Haze
10:55 AM 46.0 °F 28.9 °F 51% 30.16 in 10.0 mi Calm Calm - N/A   Clear
12:55 PM 59.0 °F 23.0 °F 25% 30.08 in 10.0 mi SSW 18.4 mph 24.2 mph N/A   Clear
1:55 PM 57.0 °F 24.1 °F 28% 30.07 in 10.0 mi South 13.8 mph - N/A   Clear
2:55 PM 55.0 °F 25.0 °F 31% 30.07 in 10.0 mi South 12.7 mph - N/A   Clear
4:55 PM 48.0 °F 27.0 °F 44% 30.09 in 10.0 mi South 5.8 mph - N/A   Clear
5:55 PM 46.9 °F 28.0 °F 48% 30.09 in 10.0 mi SE 5.8 mph - N/A   Clear
6:55 PM 42.1 °F 27.0 °F 55% 30.11 in 10.0 mi Calm Calm - N/A   Clear
7:55 PM 44.1 °F 27.0 °F 51% 30.11 in 10.0 mi Calm Calm - N/A   Clear
8:55 PM 36.0 °F 27.0 °F 70% 30.09 in 10.0 mi Calm Calm - N/A   Clear
9:55 PM 39.9 °F 27.0 °F 60% 30.05 in 10.0 mi Calm Calm - N/A   Clear
10:55 PM 34.0 °F 26.1 °F 73% 30.05 in 9.0 mi Calm Calm - N/A   Clear
11:55 PM 35.1 °F 26.1 °F 70% 30.02 in 6.0 mi Calm Calm - N/A   Haze